This is the latest recevied weather packets stored in our database for station/object WP4NYS-13. If no packets are shown the sender has not sent any weather packets the latest 1 day(s).
| Time | Temp. | Humidity | Pressure | Rain* | Wind** | Luminosity | Snow |
|---|---|---|---|---|---|---|---|
| 1777984387 | 20° C | 77% | 1017 hPa | 0 mm | 0 m/s | - | - |
| 1777984083 | 20° C | 77% | 1017.4 hPa | 0 mm | 0 m/s | - | - |
| 1777983781 | 19.44° C | 79% | 1017.3 hPa | 0 mm | 0 m/s | - | - |
| 1777983477 | 18.89° C | 80% | 1017.3 hPa | 0 mm | 0 m/s | - | - |
| 1777983174 | 18.89° C | 80% | 1017.5 hPa | 0 mm | 0 m/s | - | - |
| 1777982870 | 18.33° C | 80% | 1017.3 hPa | 0 mm | 0 m/s | - | - |
| 1777982566 | 17.78° C | 82% | 1017.3 hPa | 0 mm | 0 m/s | - | - |
| 1777982265 | 17.78° C | 81% | 1017.1 hPa | 0 mm | 0 m/s | - | - |
| 1777981963 | 17.78° C | 82% | 1016.9 hPa | 0 mm | 0 m/s | - | - |
| 1777981660 | 17.22° C | 83% | 1017 hPa | 0 mm | 0 m/s | - | - |
| 1777981359 | 16.67° C | 85% | 1017 hPa | 0 mm | 0 m/s | - | - |
| 1777981052 | 16.11° C | 87% | 1017.1 hPa | 0 mm | 0 m/s | - | - |
| 1777980749 | 15.56° C | 89% | 1016.9 hPa | 0 mm | 0 m/s | - | - |
| 1777980445 | 15.56° C | 89% | 1016.9 hPa | 0 mm | 0 m/s | - | - |
| 1777980143 | 15.56° C | 89% | 1017.1 hPa | 0 mm | 0 m/s | - | - |
| 1777979843 | 15.56° C | 89% | 1016.9 hPa | 0 mm | 0 m/s | - | - |
| 1777979539 | 15° C | 89% | 1016.9 hPa | 0 mm | 0 m/s | - | - |
| 1777979235 | 15° C | 89% | 1016.8 hPa | 0 mm | 0 m/s | - | - |
| 1777978933 | 15° C | 89% | 1017 hPa | 0 mm | 0 m/s | - | - |
| 1777978629 | 15° C | 89% | 1016.9 hPa | 0 mm | 0 m/s | - | - |
| 1777978324 | 15° C | 89% | 1016.9 hPa | 0 mm | 0 m/s | - | - |
| 1777978022 | 15° C | 89% | 1016.7 hPa | 0 mm | 0 m/s | - | - |
| 1777977719 | 15° C | 89% | 1016.8 hPa | 0 mm | 0 m/s | - | - |
| 1777977415 | 15° C | 89% | 1016.8 hPa | 0 mm | 0 m/s | - | - |
| 1777977113 | 15° C | 89% | 1016.6 hPa | 0 mm | 0 m/s | - | - |
* Rain latest hour (hover to see other rain measurements)
** Current wind speed in m/s (hover to see current wind gust speed)